{"data":{"norad_id":51775,"epoch":"2026-05-25T06:00:02.000160Z","epoch_age_seconds":46697,"freshness":"FRESH","line1":"1 51775U 22017H   26145.25002315  .00115446  00000+0  26806-2 0  9997","line2":"2 51775  53.2181 350.3951 0001677  77.0942  13.5061 15.41504750  5770","mean_motion":15.4150475,"eccentricity":0.0001677,"inclination_deg":53.2181,"raan_deg":350.3951,"arg_perigee_deg":77.0942,"mean_anomaly_deg":13.5061,"bstar":0.0026806,"rev_number":577,"period_min":93.415216527876,"perigee_km":440.5238919667,"apogee_km":442.81125442055,"semimajor_km":6819.8045731936,"source":"CELESTRAK","updated_at":"2026-05-25T13:38:16.950929Z"}}